• In Belarus
  • List of Countries
  • For 7 days
  • Water Temperature
  • Satellite Maps
  • Weather Map
  • Weather Widgets
  • user-avatar
    Login

    Hourly Weather Chociemysl

    Today, 22 February, Friday

    Time Temperature Precipitation Wind Pressure Humidity
    00:00 +7°C° 0.5 mm 4 mps 759 mmHg 92%
    01:00 +7°C° 0 mm 3 mps 760 mmHg 92%
    02:00 +6°C° 0.2 mm 4 mps 760 mmHg 91%
    03:00 +6°C° 0.2 mm 5 mps 761 mmHg 90%
    04:00 +5°C° 0.2 mm 6 mps 761 mmHg 89%
    05:00 +3°C° 0 mm 6 mps 763 mmHg 85%
    06:00 +2°C° 0 mm 6 mps 764 mmHg 82%
    07:00 0°C° 0 mm 5 mps 766 mmHg 78%
    08:00 0°C° 0 mm 5 mps 767 mmHg 73%
    09:00 -1°C° 0 mm 5 mps 768 mmHg 68%
    10:00 -1°C° 0 mm 5 mps 769 mmHg 62%
    11:00 -1°C° 0 mm 5 mps 770 mmHg 57%
    12:00 0°C° 0 mm 5 mps 771 mmHg 51%
    13:00 0°C° 0 mm 4 mps 772 mmHg 44%
    14:00 0°C° 0 mm 4 mps 772 mmHg 44%
    15:00 0°C° 0 mm 4 mps 772 mmHg 43%
    16:00 -1°C° 0 mm 4 mps 773 mmHg 43%
    17:00 -1°C° 0 mm 4 mps 774 mmHg 46%
    18:00 -1°C° 0 mm 3 mps 774 mmHg 49%
    19:00 -2°C° 0 mm 3 mps 775 mmHg 53%
    20:00 -2°C° 0 mm 3 mps 775 mmHg 52%
    21:00 -4°C° 0 mm 3 mps 776 mmHg 51%
    22:00 -4°C° 0 mm 3 mps 776 mmHg 50%
    23:00 -3°C° 0 mm 2 mps 777 mmHg 49%

    Tomorrow, 23 February, Saturday

    Time Temperature Precipitation Wind Pressure Humidity
    00:00 -3°C° 0 mm 2 mps 777 mmHg 49%
    01:00 -3°C° 0 mm 2 mps 777 mmHg 48%
    02:00 -3°C° 0 mm 2 mps 777 mmHg 48%
    03:00 -3°C° 0 mm 2 mps 777 mmHg 48%
    04:00 -3°C° 0 mm 2 mps 777 mmHg 47%
    05:00 -3°C° 0 mm 2 mps 777 mmHg 47%
    06:00 -4°C° 0 mm 2 mps 777 mmHg 47%
    07:00 -4°C° 0 mm 2 mps 777 mmHg 46%
    08:00 -3°C° 0 mm 2 mps 777 mmHg 42%
    09:00 -2°C° 0 mm 2 mps 777 mmHg 37%
    10:00 -1°C° 0 mm 2 mps 777 mmHg 32%
    11:00 +1°C° 0 mm 2 mps 777 mmHg 29%
    12:00 +2°C° 0 mm 2 mps 777 mmHg 27%
    13:00 +2°C° 0 mm 2 mps 776 mmHg 24%
    14:00 +2°C° 0 mm 2 mps 776 mmHg 25%
    15:00 +2°C° 0 mm 2 mps 776 mmHg 27%
    16:00 +2°C° 0 mm 2 mps 775 mmHg 28%
    17:00 +1°C° 0 mm 2 mps 775 mmHg 31%
    18:00 -1°C° 0 mm 2 mps 775 mmHg 35%
    19:00 -2°C° 0 mm 2 mps 775 mmHg 38%
    20:00 -2°C° 0 mm 2 mps 775 mmHg 39%
    21:00 -2°C° 0 mm 2 mps 775 mmHg 39%
    22:00 -2°C° 0 mm 2 mps 774 mmHg 40%
    23:00 -2°C° 0 mm 2 mps 774 mmHg 39%

    Day after tomorrow, 24 February, Sunday

    Time Temperature Precipitation Wind Pressure Humidity
    00:00 0°C° 0 mm 1 mps 774 mmHg 39%
    01:00 0°C° 0 mm 1 mps 774 mmHg 38%
    02:00 0°C° 0 mm 1 mps 774 mmHg 38%
    03:00 0°C° 0 mm 1 mps 773 mmHg 37%
    04:00 +1°C° 0 mm 1 mps 773 mmHg 36%
    05:00 +1°C° 0 mm 1 mps 773 mmHg 36%
    06:00 +1°C° 0 mm 1 mps 773 mmHg 36%
    07:00 +1°C° 0 mm 1 mps 773 mmHg 37%
    08:00 +3°C° 0 mm 1 mps 773 mmHg 34%
    09:00 +3°C° 0 mm 2 mps 773 mmHg 32%
    10:00 +4°C° 0 mm 2 mps 773 mmHg 30%
    11:00 +5°C° 0 mm 2 mps 773 mmHg 29%
    12:00 +5°C° 0 mm 3 mps 772 mmHg 29%
    13:00 +8°C° 0 mm 3 mps 772 mmHg 28%
    14:00 +7°C° 0 mm 3 mps 772 mmHg 32%
    15:00 +7°C° 0 mm 2 mps 772 mmHg 37%
    16:00 +7°C° 0 mm 2 mps 772 mmHg 41%
    17:00 +6°C° 0 mm 2 mps 772 mmHg 46%
    18:00 +4°C° 0 mm 2 mps 772 mmHg 50%
    19:00 +3°C° 0 mm 2 mps 772 mmHg 55%
    20:00 +3°C° 0 mm 2 mps 772 mmHg 57%
    21:00 +2°C° 0 mm 2 mps 772 mmHg 59%
    22:00 +2°C° 0 mm 2 mps 773 mmHg 62%
    23:00 +2°C° 0 mm 2 mps 773 mmHg 64%

    25 February, Monday

    Time Temperature Precipitation Wind Pressure Humidity
    00:00 +2°C° 0 mm 2 mps 773 mmHg 66%
    01:00 +1°C° 0 mm 2 mps 773 mmHg 68%
    02:00 +1°C° 0 mm 2 mps 773 mmHg 70%
    03:00 0°C° 0 mm 3 mps 772 mmHg 73%
    04:00 0°C° 0 mm 3 mps 772 mmHg 75%
    05:00 +1°C° 0 mm 2 mps 772 mmHg 76%
    06:00 -1°C° 0 mm 2 mps 772 mmHg 78%
    07:00 -1°C° 0 mm 2 mps 772 mmHg 79%
    08:00 +2°C° 0 mm 2 mps 773 mmHg 74%
    09:00 +3°C° 0 mm 2 mps 773 mmHg 69%
    10:00 +5°C° 0 mm 2 mps 773 mmHg 64%
    11:00 +6°C° 0 mm 2 mps 773 mmHg 63%
    12:00 +8°C° 0 mm 2 mps 773 mmHg 62%
    13:00 +9°C° 0 mm 2 mps 773 mmHg 61%
    14:00 +9°C° 0 mm 2 mps 772 mmHg 62%
    15:00 +10°C° 0 mm 2 mps 772 mmHg 63%
    16:00 +10°C° 0 mm 2 mps 771 mmHg 64%
    17:00 +8°C° 0 mm 2 mps 771 mmHg 70%
    18:00 +7°C° 0 mm 2 mps 771 mmHg 75%
    19:00 +6°C° 0 mm 2 mps 771 mmHg 81%
    20:00 +5°C° 0 mm 2 mps 771 mmHg 81%
    21:00 +5°C° 0 mm 2 mps 771 mmHg 80%
    22:00 +4°C° 0 mm 3 mps 771 mmHg 80%
    23:00 +3°C° 0 mm 3 mps 771 mmHg 78%

    26 February, Tuesday

    Time Temperature Precipitation Wind Pressure Humidity
    00:00 +3°C° 0 mm 3 mps 771 mmHg 76%
    01:00 +3°C° 0 mm 3 mps 770 mmHg 74%
    02:00 +2°C° 0 mm 3 mps 770 mmHg 76%
    03:00 +2°C° 0 mm 3 mps 770 mmHg 77%
    04:00 +1°C° 0 mm 3 mps 769 mmHg 79%
    05:00 +1°C° 0 mm 3 mps 769 mmHg 79%
    06:00 +1°C° 0 mm 3 mps 769 mmHg 79%
    07:00 0°C° 0 mm 4 mps 769 mmHg 79%
    08:00 +3°C° 0 mm 4 mps 769 mmHg 73%
    09:00 +4°C° 0 mm 4 mps 769 mmHg 67%
    10:00 +6°C° 0 mm 5 mps 769 mmHg 61%
    11:00 +7°C° 0 mm 5 mps 769 mmHg 57%
    12:00 +9°C° 0 mm 5 mps 768 mmHg 52%
    13:00 +10°C° 0 mm 5 mps 768 mmHg 47%
    14:00 +10°C° 0 mm 5 mps 768 mmHg 48%
    15:00 +10°C° 0 mm 5 mps 767 mmHg 48%
    16:00 +10°C° 0 mm 5 mps 767 mmHg 48%
    17:00 +10°C° 0 mm 4 mps 767 mmHg 55%
    18:00 +8°C° 0 mm 3 mps 767 mmHg 61%
    19:00 +7°C° 0 mm 3 mps 768 mmHg 68%
    20:00 +6°C° 0 mm 2 mps 768 mmHg 71%
    21:00 +6°C° 0 mm 2 mps 768 mmHg 74%
    22:00 +5°C° 0 mm 2 mps 768 mmHg 77%
    23:00 +5°C° 0 mm 2 mps 768 mmHg 79%

    27 February, Wednesday

    Time Temperature Precipitation Wind Pressure Humidity
    00:00 +4°C° 0 mm 2 mps 767 mmHg 82%
    01:00 +4°C° 0 mm 2 mps 767 mmHg 84%
    02:00 +4°C° 0 mm 2 mps 767 mmHg 86%
    03:00 +3°C° 0 mm 2 mps 767 mmHg 88%
    04:00 +3°C° 0 mm 2 mps 767 mmHg 90%
    05:00 +3°C° 0 mm 2 mps 767 mmHg 91%
    06:00 +3°C° 0 mm 2 mps 766 mmHg 91%
    07:00 +2°C° 0 mm 2 mps 766 mmHg 92%
    08:00 +3°C° 0 mm 3 mps 766 mmHg 85%
    09:00 +5°C° 0 mm 3 mps 766 mmHg 78%
    10:00 +7°C° 0 mm 3 mps 765 mmHg 71%
    11:00 +9°C° 0 mm 3 mps 765 mmHg 66%
    12:00 +11°C° 0 mm 3 mps 764 mmHg 61%
    13:00 +12°C° 0 mm 4 mps 764 mmHg 55%
    14:00 +13°C° 0 mm 3 mps 763 mmHg 55%
    15:00 +13°C° 0 mm 3 mps 762 mmHg 55%
    16:00 +13°C° 0 mm 3 mps 761 mmHg 54%
    17:00 +12°C° 0 mm 3 mps 761 mmHg 60%
    18:00 +10°C° 0 mm 3 mps 761 mmHg 65%
    19:00 +9°C° 0 mm 3 mps 760 mmHg 71%
    20:00 +8°C° 0 mm 3 mps 760 mmHg 72%
    21:00 +8°C° 0 mm 3 mps 759 mmHg 73%
    22:00 +7°C° 0 mm 4 mps 759 mmHg 74%
    23:00 +6°C° 0 mm 4 mps 758 mmHg 76%
    Show more